,,Stat6,,Stat2,,Stat8,,Stat9,,Stat10,,Wind1,,Wind1,
time,status,PA1M_AVG,status,PR1M_SUM,status,RH1M_AVG,status,SR1M_AVG,status,TA1M_AVG,status,W1dAve1m,status,W1sAve1m,
2005-09-29, 00:00:00,VALID,918.442,VALID,0,VALID,99.7154,VALID,0.0679233,VALID,20.5577,VALID,134,VALID,0.680069,
2005-09-29, 00:01:00,VALID,918.441,VALID,0,VALID,99.7688,VALID,0.0169808,VALID,20.5482,VALID,129,VALID,0.45694,
2005-09-29, 00:02:00,VALID,918.439,VALID,0,VALID,99.8057,VALID,-0.0339617,VALID,20.5296,VALID,124,VALID,0.441907,
2005-09-29, 00:03:00,VALID,918.429,VALID,0,VALID,99.7879,VALID,-0.0849042,VALID,20.5334,VALID,116,VALID,0.626524,
2005-09-29, 00:04:00,VALID,918.414,VALID,0,VALID,99.8121,VALID,-0.0509425,VALID,20.5172,VALID,96,VALID,0.833939,
2005-09-29, 00:05:00,VALID,918.409,VALID,0,VALID,99.7777,VALID,-0.0509425,VALID,20.5239,VALID,93,VALID,0.713844,
2005-09-29, 00:06:00,VALID,918.402,VALID,0,VALID,99.7408,VALID,-0.0509425,VALID,20.5041,VALID,89,VALID,0.546693,
2005-09-29, 00:07:00,VALID,918.395,VALID,0,VALID,99.7663,VALID,-0.0339617,VALID,20.4979,VALID,90,VALID,0.645461,
2005-09-29, 00:08:00,VALID,918.396,VALID,0,VALID,99.7205,VALID,-0.0339617,VALID,20.4849,VALID,87,VALID,0.795922,
2005-09-29, 00:09:00,VALID,918.392,VALID,0,VALID,99.6951,VALID,-0.0509425,VALID,20.4817,VALID,84,VALID,0.744048,
2005-09-29, 00:10:00,VALID,918.379,VALID,0,VALID,99.6696,VALID,0,VALID,20.472,VALID,86,VALID,0.696875,
2005-09-29, 00:11:00,VALID,918.381,VALID,0,VALID,99.6289,VALID,-0.0169808,VALID,20.4462,VALID,85,VALID,0.995908,
2005-09-29, 00:12:00,VALID,918.38,VALID,0,VALID,99.6277,VALID,-0.0169808,VALID,20.4203,VALID,89,VALID,0.919271,
2005-09-29, 00:13:00,VALID,918.39,VALID,0,VALID,99.5704,VALID,-0.0339617,VALID,20.4079,VALID,100,VALID,0.684048,
2005-09-29, 00:14:00,VALID,918.372,VALID,0,VALID,99.5628,VALID,-0.0339617,VALID,20.3883,VALID,98,VALID,0.629464,
2005-09-29, 00:15:00,VALID,918.376,VALID,0,VALID,99.5577,VALID,-0.0169808,VALID,20.3722,VALID,95,VALID,0.69549,
2005-09-29, 00:16:00,VALID,918.385,VALID,0,VALID,99.5616,VALID,-0.0169808,VALID,20.356,VALID,80,VALID,0.813643,
2005-09-29, 00:17:00,VALID,918.388,VALID,0,VALID,99.5132,VALID,0.0509425,VALID,20.345,VALID,77,VALID,0.666667,
2005-09-29, 00:18:00,VALID,918.382,VALID,0,VALID,99.5374,VALID,0.0679233,VALID,20.3456,VALID,83,VALID,0.679492,
2005-09-29, 00:19:00,VALID,918.372,VALID,0,VALID,99.5844,VALID,0.0169808,VALID,20.3321,VALID,88,VALID,0.619665,
2005-09-29, 00:20:00,VALID,918.36,VALID,0,VALID,99.6353,VALID,0.0169808,VALID,20.3157,VALID,85,VALID,0.609976,
2005-09-29, 00:21:00,VALID,918.354,VALID,0,VALID,99.7078,VALID,0.0339617,VALID,20.3127,VALID,81,VALID,0.604759,
2005-09-29, 00:22:00,VALID,918.339,VALID,0,VALID,99.7497,VALID,0.0339617,VALID,20.3103,VALID,81,VALID,0.456555,
2005-09-29, 00:23:00,VALID,918.329,VALID,0,VALID,99.6836,VALID,0.0679233,VALID,20.2869,VALID,79,VALID,0.61756,
2005-09-29, 00:24:00,VALID,918.302,VALID,0,VALID,99.7027,VALID,0.0169808,VALID,20.2678,VALID,70,VALID,0.761896,
2005-09-29, 00:25:00,VALID,918.28,VALID,0,VALID,99.8515,VALID,0.0169808,VALID,20.2713,VALID,69,VALID,0.44494,
2005-09-29, 00:26:00,VALID,918.267,VALID,0,VALID,99.9125,VALID,0,VALID,20.2581,VALID,69,VALID,0.541061,
2005-09-29, 00:27:00,VALID,918.233,VALID,0,VALID,99.9941,VALID,0.0339617,VALID,20.278,VALID,70,VALID,0.498001,
2005-09-29, 00:28:00,VALID,918.182,VALID,0,VALID,100,VALID,0,VALID,20.2785,VALID,72,VALID,0.438616,
2005-09-29, 00:29:00,VALID,918.145,VALID,0,VALID,100,VALID,0.0509425,VALID,20.2745,VALID,85,VALID,0.512429,
2005-09-29, 00:30:00,VALID,918.122,VALID,0,VALID,100,VALID,0.0509425,VALID,20.2675,VALID,100,VALID,0.412609,
2005-09-29, 00:31:00,VALID,918.097,VALID,0,VALID,100,VALID,0.0339617,VALID,20.2713,VALID,100,VALID,0.251488,
2005-09-29, 00:32:00,VALID,918.072,VALID,0,VALID,100,VALID,0,VALID,20.2807,VALID,100,VALID,0.272529,
2005-09-29, 00:33:00,VALID,918.049,VALID,0,VALID,100,VALID,0.0339617,VALID,20.2907,VALID,116,VALID,0.472384,
2005-09-29, 00:34:00,VALID,918.031,VALID,0,VALID,100,VALID,0.0339617,VALID,20.2842,VALID,119,VALID,0.298958,
2005-09-29, 00:35:00,VALID,917.997,VALID,0,VALID,100,VALID,0.0169808,VALID,20.3071,VALID,119,VALID,0.0729167,
2005-09-29, 00:36:00,VALID,917.973,VALID,0,VALID,100,VALID,0.0339617,VALID,20.3065,VALID,119,VALID,0.101953,
2005-09-29, 00:37:00,VALID,917.946,VALID,0,VALID,100,VALID,0.0509425,VALID,20.3456,VALID,119,VALID,0.285056,
2005-09-29, 00:38:00,VALID,917.897,VALID,0,VALID,100,VALID,0.0339617,VALID,20.3684,VALID,119,VALID,0.0968387,
2005-09-29, 00:39:00,VALID,917.89,VALID,0,VALID,100,VALID,0.0339617,VALID,20.3977,VALID,119,VALID,0.00090843,
2005-09-29, 00:40:00,VALID,917.877,VALID,0,VALID,100,VALID,0.0169808,VALID,20.3811,VALID,119,VALID,0.0745739,
2005-09-29, 00:41:00,VALID,917.869,VALID,0,VALID,99.9372,VALID,0,VALID,20.3466,VALID,69,VALID,0.272347,
2005-09-29, 00:42:00,VALID,917.854,VALID,0,VALID,99.8693,VALID,0.0339617,VALID,20.31,VALID,347,VALID,0.773237,
2005-09-29, 00:43:00,VALID,917.823,VALID,0,VALID,99.3937,VALID,0.0339617,VALID,20.2231,VALID,10,VALID,0.751524,
2005-09-29, 00:44:00,VALID,917.807,VALID,0,VALID,99.4229,VALID,0.0339617,VALID,20.1752,VALID,11,VALID,0.69122,
2005-09-29, 00:45:00,VALID,917.792,VALID,0,VALID,99.5768,VALID,0.0339617,VALID,20.1362,VALID,6,VALID,0.835737,
2005-09-29, 00:46:00,VALID,917.773,VALID,0,VALID,99.7523,VALID,0.0169808,VALID,20.0942,VALID,31,VALID,0.574886,
2005-09-29, 00:47:00,VALID,917.747,VALID,0,VALID,99.8019,VALID,0,VALID,20.0549,VALID,44,VALID,0.864397,
2005-09-29, 00:48:00,VALID,917.739,VALID,0,VALID,99.9939,VALID,0,VALID,20.0517,VALID,50,VALID,1.01563,
2005-09-29, 00:49:00,VALID,917.709,VALID,0,VALID,100,VALID,0.0169808,VALID,20.0361,VALID,52,VALID,1.10286,
2005-09-29, 00:50:00,VALID,917.692,VALID,0,VALID,99.9301,VALID,0.0509425,VALID,19.9744,VALID,41,VALID,1.26823,
2005-09-29, 00:51:00,VALID,917.66,VALID,0,VALID,100,VALID,0.0169808,VALID,19.9295,VALID,37,VALID,1.08085,
2005-09-29, 00:52:00,VALID,917.64,VALID,0,VALID,100,VALID,0.0509425,VALID,19.8975,VALID,39,VALID,0.958147,
2005-09-29, 00:53:00,VALID,917.631,VALID,0,VALID,100,VALID,0.0509425,VALID,19.8868,VALID,34,VALID,0.728743,
2005-09-29, 00:54:00,VALID,917.627,VALID,0,VALID,100,VALID,0.0169808,VALID,19.9002,VALID,34,VALID,0.583777,
2005-09-29, 00:55:00,VALID,917.625,VALID,0,VALID,100,VALID,0,VALID,19.894,VALID,34,VALID,0.28234,
2005-09-29, 00:56:00,VALID,917.614,VALID,0,VALID,100,VALID,0.0169808,VALID,19.887,VALID,34,VALID,0.283736,
2005-09-29, 00:57:00,VALID,917.605,VALID,0,VALID,100,VALID,0.0509425,VALID,19.9131,VALID,34,VALID,0.431593,
2005-09-29, 00:58:00,VALID,917.598,VALID,0,VALID,100,VALID,0.0339617,VALID,19.9099,VALID,34,VALID,0.330305,
2005-09-29, 00:59:00,VALID,917.588,VALID,0,VALID,100,VALID,0.0509425,VALID,19.9427,VALID,34,VALID,0.286258,
2005-09-29, 01:00:00,VALID,917.563,VALID,0,VALID,100,VALID,0.0339617,VALID,19.9491,VALID,34,VALID,0.234561,
2005-09-29, 01:01:00,VALID,917.548,VALID,0,VALID,100,VALID,0.0509425,VALID,19.8937,VALID,34,VALID,0.253819,
2005-09-29, 01:02:00,VALID,917.547,VALID,0,VALID,100,VALID,0.0169808,VALID,19.7904,VALID,83,VALID,0.525618,
2005-09-29, 01:03:00,VALID,917.56,VALID,0,VALID,100,VALID,0.0169808,VALID,19.6707,VALID,149,VALID,0.660065,
2005-09-29, 01:04:00,VALID,917.557,VALID,0,VALID,100,VALID,0.0339617,VALID,19.5872,VALID,143,VALID,0.855114,
2005-09-29, 01:05:00,VALID,917.556,VALID,0,VALID,100,VALID,0,VALID,19.5527,VALID,144,VALID,0.741477,
2005-09-29, 01:06:00,VALID,917.542,VALID,0,VALID,100,VALID,0.0339617,VALID,19.5135,VALID,143,VALID,0.706854,
2005-09-29, 01:07:00,VALID,917.519,VALID,0,VALID,100,VALID,0.0509425,VALID,19.5261,VALID,144,VALID,0.757118,
2005-09-29, 01:08:00,VALID,917.494,VALID,0,VALID,100,VALID,0.0339617,VALID,19.6133,VALID,144,VALID,0.573583,
2005-09-29, 01:09:00,VALID,917.479,VALID,0,VALID,100,VALID,0.0339617,VALID,19.6645,VALID,146,VALID,0.507631,
2005-09-29, 01:10:00,VALID,917.453,VALID,0,VALID,100,VALID,0,VALID,19.7139,VALID,155,VALID,0.602289,
2005-09-29, 01:11:00,VALID,917.434,VALID,0,VALID,100,VALID,0,VALID,19.7395,VALID,160,VALID,0.593559,
2005-09-29, 01:12:00,VALID,917.424,VALID,0,VALID,100,VALID,0.0169808,VALID,19.7879,VALID,161,VALID,0.431734,
2005-09-29, 01:13:00,VALID,917.426,VALID,0,VALID,100,VALID,0,VALID,19.8167,VALID,161,VALID,0.217607,
2005-09-29, 01:14:00,VALID,917.419,VALID,0,VALID,100,VALID,0,VALID,19.8331,VALID,161,VALID,0.128997,
2005-09-29, 01:15:00,VALID,917.421,VALID,0,VALID,100,VALID,0.0339617,VALID,19.8557,VALID,161,VALID,0.139915,
2005-09-29, 01:16:00,VALID,917.425,VALID,0,VALID,100,VALID,0.0169808,VALID,19.8818,VALID,161,VALID,0.330124,
2005-09-29, 01:17:00,VALID,917.417,VALID,0,VALID,100,VALID,-0.0679233,VALID,19.8858,VALID,161,VALID,0.0684956,
2005-09-29, 01:18:00,VALID,917.415,VALID,0,VALID,100,VALID,-0.0679233,VALID,19.8828,VALID,161,VALID,0.0981889,
2005-09-29, 01:19:00,VALID,917.392,VALID,0,VALID,100,VALID,-0.0509425,VALID,19.8863,VALID,161,VALID,0.0127841,
2005-09-29, 01:20:00,VALID,917.376,VALID,0,VALID,100,VALID,-0.101885,VALID,19.8403,VALID,161,VALID,0.00740132,
2005-09-29, 01:21:00,VALID,917.386,VALID,0,VALID,100,VALID,-0.0679233,VALID,19.8182,VALID,161,VALID,0.286175,
2005-09-29, 01:22:00,VALID,917.388,VALID,0,VALID,100,VALID,-0.0849042,VALID,19.8441,VALID,161,VALID,0.0138081,
2005-09-29, 01:23:00,VALID,917.384,VALID,0,VALID,100,VALID,-0.0169808,VALID,19.8508,VALID,161,VALID,0,
2005-09-29, 01:24:00,VALID,917.381,VALID,0,VALID,100,VALID,-0.0509425,VALID,19.8535,VALID,161,VALID,0,
2005-09-29, 01:25:00,VALID,917.382,VALID,0,VALID,100,VALID,-0.0509425,VALID,19.8831,VALID,161,VALID,0,
2005-09-29, 01:26:00,VALID,917.37,VALID,0,VALID,100,VALID,-0.0849042,VALID,19.8766,VALID,161,VALID,0.269077,
2005-09-29, 01:27:00,VALID,917.364,VALID,0,VALID,100,VALID,-0.0339617,VALID,19.8865,VALID,161,VALID,0.466087,
2005-09-29, 01:28:00,VALID,917.364,VALID,0,VALID,100,VALID,-0.0679233,VALID,19.8734,VALID,161,VALID,0.531771,
2005-09-29, 01:29:00,VALID,917.37,VALID,0,VALID,100,VALID,-0.0509425,VALID,19.8311,VALID,161,VALID,0.536577,
2005-09-29, 01:30:00,VALID,917.377,VALID,0,VALID,100,VALID,-0.0679233,VALID,19.7919,VALID,162,VALID,0.552827,
2005-09-29, 01:31:00,VALID,917.369,VALID,0,VALID,100,VALID,-0.0849042,VALID,19.7926,VALID,165,VALID,0.301282,
2005-09-29, 01:32:00,VALID,917.379,VALID,0,VALID,100,VALID,-0.0849042,VALID,19.8026,VALID,180,VALID,0.487351,
2005-09-29, 01:33:00,VALID,917.388,VALID,0,VALID,100,VALID,-0.101885,VALID,19.8155,VALID,225,VALID,0.365785,
2005-09-29, 01:34:00,VALID,917.389,VALID,0,VALID,100,VALID,-0.0509425,VALID,19.8446,VALID,246,VALID,0.318266,
2005-09-29, 01:35:00,VALID,917.396,VALID,0,VALID,100,VALID,-0.0679233,VALID,19.8505,VALID,246,VALID,0.124653,
2005-09-29, 01:36:00,VALID,917.406,VALID,0,VALID,100,VALID,-0.0679233,VALID,19.9057,VALID,246,VALID,0.0405869,
2005-09-29, 01:37:00,VALID,917.401,VALID,0,VALID,100,VALID,-0.0849042,VALID,19.9417,VALID,246,VALID,0,
2005-09-29, 01:38:00,VALID,917.385,VALID,0,VALID,100,VALID,-0.0849042,VALID,19.9124,VALID,220,VALID,0.291481,
2005-09-29, 01:39:00,VALID,917.397,VALID,0,VALID,100,VALID,-0.101885,VALID,19.8965,VALID,185,VALID,0.449219,
2005-09-29, 01:40:00,VALID,917.379,VALID,0,VALID,100,VALID,-0.0679233,VALID,19.854,VALID,185,VALID,0.30202,
2005-09-29, 01:41:00,VALID,917.386,VALID,0,VALID,100,VALID,-0.0509425,VALID,19.7894,VALID,185,VALID,0.209821,
2005-09-29, 01:42:00,VALID,917.38,VALID,0,VALID,100,VALID,-0.0849042,VALID,19.7117,VALID,185,VALID,0.225654,
2005-09-29, 01:43:00,VALID,917.37,VALID,0,VALID,100,VALID,-0.0509425,VALID,19.6468,VALID,185,VALID,0.140807,
2005-09-29, 01:44:00,VALID,917.365,VALID,0,VALID,100,VALID,-0.0509425,VALID,19.5927,VALID,185,VALID,0.23125,
2005-09-29, 01:45:00,VALID,917.357,VALID,0,VALID,100,VALID,-0.0679233,VALID,19.5184,VALID,185,VALID,0.174733,
2005-09-29, 01:46:00,VALID,917.344,VALID,0,VALID,100,VALID,-0.0849042,VALID,19.4536,VALID,185,VALID,0.219703,
2005-09-29, 01:47:00,VALID,917.328,VALID,0,VALID,100,VALID,0.0339617,VALID,19.4039,VALID,185,VALID,0.275,
2005-09-29, 01:48:00,VALID,917.32,VALID,0,VALID,100,VALID,0.0339617,VALID,19.3689,VALID,185,VALID,0.161458,
2005-09-29, 01:49:00,VALID,917.303,VALID,0,VALID,100,VALID,0.0169808,VALID,19.3364,VALID,185,VALID,0.303961,
2005-09-29, 01:50:00,VALID,917.31,VALID,0,VALID,100,VALID,0.0509425,VALID,19.3329,VALID,185,VALID,0.31436,
2005-09-29, 01:51:00,VALID,917.315,VALID,0,VALID,100,VALID,0.0509425,VALID,19.3297,VALID,165,VALID,0.400799,
2005-09-29, 01:52:00,VALID,917.344,VALID,0,VALID,100,VALID,0.0339617,VALID,19.3585,VALID,139,VALID,0.620164,
2005-09-29, 01:53:00,VALID,917.357,VALID,0,VALID,100,VALID,0.0509425,VALID,19.3808,VALID,132,VALID,0.432355,
2005-09-29, 01:54:00,VALID,917.383,VALID,0,VALID,100,VALID,0.0169808,VALID,19.4039,VALID,128,VALID,0.18821,
2005-09-29, 01:55:00,VALID,917.385,VALID,0,VALID,100,VALID,0.0169808,VALID,19.4039,VALID,128,VALID,0.241477,
2005-09-29, 01:56:00,VALID,917.397,VALID,0,VALID,100,VALID,0.0169808,VALID,19.3883,VALID,128,VALID,0.254278,
2005-09-29, 01:57:00,VALID,917.387,VALID,0,VALID,100,VALID,0.0169808,VALID,19.3235,VALID,128,VALID,0.400347,
2005-09-29, 01:58:00,VALID,917.376,VALID,0,VALID,100,VALID,0.0169808,VALID,19.3565,VALID,123,VALID,0.52939,
2005-09-29, 01:59:00,VALID,917.367,VALID,0,VALID,100,VALID,0.0169808,VALID,19.4109,VALID,123,VALID,0.475347,
2005-09-29, 02:00:00,VALID,917.359,VALID,0,VALID,100,VALID,0.0169808,VALID,19.4623,VALID,124,VALID,0.475038,
2005-09-29, 02:01:00,VALID,917.362,VALID,0,VALID,100,VALID,0.0339617,VALID,19.514,VALID,124,VALID,0.597284,
2005-09-29, 02:02:00,VALID,917.361,VALID,0,VALID,100,VALID,-0.0509425,VALID,19.5378,VALID,124,VALID,0.501215,
2005-09-29, 02:03:00,VALID,917.348,VALID,0,VALID,100,VALID,-0.0679233,VALID,19.5507,VALID,135,VALID,0.576637,
2005-09-29, 02:04:00,VALID,917.343,VALID,0,VALID,100,VALID,-0.0339617,VALID,19.5668,VALID,126,VALID,0.836293,
2005-09-29, 02:05:00,VALID,917.343,VALID,0,VALID,100,VALID,-0.101885,VALID,19.5636,VALID,106,VALID,0.607088,
2005-09-29, 02:06:00,VALID,917.324,VALID,0,VALID,100,VALID,-0.101885,VALID,19.5572,VALID,118,VALID,0.635156,
2005-09-29, 02:07:00,VALID,917.329,VALID,0,VALID,100,VALID,-0.0679233,VALID,19.5634,VALID,109,VALID,0.731889,
2005-09-29, 02:08:00,VALID,917.333,VALID,0,VALID,100,VALID,-0.101885,VALID,19.5703,VALID,113,VALID,0.756138,
2005-09-29, 02:09:00,VALID,917.341,VALID,0,VALID,100,VALID,-0.0509425,VALID,19.5798,VALID,121,VALID,0.845982,
2005-09-29, 02:10:00,VALID,917.34,VALID,0,VALID,100,VALID,-0.0849042,VALID,19.5897,VALID,121,VALID,0.833031,
2005-09-29, 02:11:00,VALID,917.344,VALID,0,VALID,100,VALID,-0.0679233,VALID,19.5922,VALID,118,VALID,1.03888,
2005-09-29, 02:12:00,VALID,917.339,VALID,0,VALID,100,VALID,-0.0849042,VALID,19.6051,VALID,118,VALID,0.894903,
2005-09-29, 02:13:00,VALID,917.317,VALID,0,VALID,100,VALID,-0.101885,VALID,19.6284,VALID,112,VALID,0.978646,
2005-09-29, 02:14:00,VALID,917.297,VALID,0,VALID,100,VALID,-0.0849042,VALID,19.628,VALID,112,VALID,1.11254,
2005-09-29, 02:15:00,VALID,917.283,VALID,0,VALID,100,VALID,-0.0679233,VALID,19.6245,VALID,127,VALID,0.738477,
2005-09-29, 02:16:00,VALID,917.265,VALID,0,VALID,100,VALID,-0.0849042,VALID,19.6277,VALID,115,VALID,1.01776,
2005-09-29, 02:17:00,VALID,917.244,VALID,0,VALID,100,VALID,-0.0679233,VALID,19.6376,VALID,116,VALID,1.03507,
2005-09-29, 02:18:00,VALID,917.241,VALID,0,VALID,100,VALID,-0.0339617,VALID,19.6441,VALID,119,VALID,1.01153,
2005-09-29, 02:19:00,VALID,917.228,VALID,0,VALID,100,VALID,-0.101885,VALID,19.6347,VALID,117,VALID,0.762767,
2005-09-29, 02:20:00,VALID,917.239,VALID,0,VALID,100,VALID,-0.101885,VALID,19.6381,VALID,113,VALID,0.895597,
2005-09-29, 02:21:00,VALID,917.223,VALID,0,VALID,100,VALID,-0.0849042,VALID,19.6379,VALID,106,VALID,0.975836,
2005-09-29, 02:22:00,VALID,917.208,VALID,0,VALID,100,VALID,-0.0849042,VALID,19.6312,VALID,119,VALID,1.01529,
2005-09-29, 02:23:00,VALID,917.196,VALID,0,VALID,100,VALID,-0.0679233,VALID,19.6282,VALID,120,VALID,0.911515,
2005-09-29, 02:24:00,VALID,917.2,VALID,0,VALID,100,VALID,-0.101885,VALID,19.625,VALID,109,VALID,0.983041,
2005-09-29, 02:25:00,VALID,917.216,VALID,0,VALID,100,VALID,-0.0679233,VALID,19.6178,VALID,101,VALID,0.938021,
2005-09-29, 02:26:00,VALID,917.231,VALID,0,VALID,100,VALID,-0.0849042,VALID,19.6116,VALID,92,VALID,0.995486,
2005-09-29, 02:27:00,VALID,917.249,VALID,0,VALID,100,VALID,-0.0679233,VALID,19.6051,VALID,85,VALID,1.08345,
2005-09-29, 02:28:00,VALID,917.254,VALID,0,VALID,100,VALID,-0.0679233,VALID,19.6021,VALID,92,VALID,0.638849,
2005-09-29, 02:29:00,VALID,917.26,VALID,0,VALID,100,VALID,-0.0509425,VALID,19.5857,VALID,96,VALID,1.10211,
2005-09-29, 02:30:00,VALID,917.272,VALID,0,VALID,100,VALID,-0.0849042,VALID,19.5927,VALID,98,VALID,0.93471,
2005-09-29, 02:31:00,VALID,917.264,VALID,0,VALID,100,VALID,-0.0849042,VALID,19.5927,VALID,94,VALID,1.0918,
2005-09-29, 02:32:00,VALID,917.278,VALID,0,VALID,100,VALID,-0.0849042,VALID,19.589,VALID,110,VALID,0.84517,
2005-09-29, 02:33:00,VALID,917.274,VALID,0,VALID,100,VALID,-0.101885,VALID,19.5892,VALID,112,VALID,0.728516,
2005-09-29, 02:34:00,VALID,917.283,VALID,0,VALID,100,VALID,-0.0509425,VALID,19.5954,VALID,113,VALID,0.330983,
2005-09-29, 02:35:00,VALID,917.265,VALID,0,VALID,100,VALID,-0.0849042,VALID,19.6058,VALID,108,VALID,1.36663,
2005-09-29, 02:36:00,VALID,917.278,VALID,0,VALID,100,VALID,-0.101885,VALID,19.5989,VALID,120,VALID,1.18236,
2005-09-29, 02:37:00,VALID,917.273,VALID,0,VALID,100,VALID,-0.101885,VALID,19.6021,VALID,122,VALID,0.723722,
2005-09-29, 02:38:00,VALID,917.267,VALID,0,VALID,100,VALID,-0.0679233,VALID,19.5986,VALID,117,VALID,0.692951,
2005-09-29, 02:39:00,VALID,917.257,VALID,0,VALID,100,VALID,-0.0509425,VALID,19.6021,VALID,123,VALID,0.956364,
2005-09-29, 02:40:00,VALID,917.243,VALID,0,VALID,100,VALID,-0.0849042,VALID,19.6024,VALID,119,VALID,0.833097,
2005-09-29, 02:41:00,VALID,917.226,VALID,0,VALID,100,VALID,-0.101885,VALID,19.5927,VALID,119,VALID,0.812322,
2005-09-29, 02:42:00,VALID,917.199,VALID,0,VALID,100,VALID,-0.0679233,VALID,19.5827,VALID,107,VALID,1.2252,
2005-09-29, 02:43:00,VALID,917.157,VALID,0,VALID,100,VALID,-0.0679233,VALID,19.5666,VALID,109,VALID,1.33021,
2005-09-29, 02:44:00,VALID,917.128,VALID,0,VALID,100,VALID,-0.0849042,VALID,19.5509,VALID,102,VALID,0.977095,
2005-09-29, 02:45:00,VALID,917.094,VALID,0,VALID,100,VALID,-0.101885,VALID,19.538,VALID,96,VALID,1.21264,
2005-09-29, 02:46:00,VALID,917.069,VALID,0,VALID,100,VALID,-0.0679233,VALID,19.5115,VALID,85,VALID,1.08957,
2005-09-29, 02:47:00,VALID,917.061,VALID,0,VALID,100,VALID,-0.0169808,VALID,19.5105,VALID,89,VALID,1.34542,
2005-09-29, 02:48:00,VALID,917.043,VALID,0,VALID,100,VALID,0,VALID,19.4948,VALID,99,VALID,1.40434,
2005-09-29, 02:49:00,VALID,917.024,VALID,0,VALID,100,VALID,0,VALID,19.4782,VALID,112,VALID,1.43843,
2005-09-29, 02:50:00,VALID,917.026,VALID,0,VALID,100,VALID,0.0169808,VALID,19.4618,VALID,103,VALID,1.50382,
2005-09-29, 02:51:00,VALID,916.996,VALID,0,VALID,100,VALID,-0.0169808,VALID,19.4623,VALID,116,VALID,1.08193,
2005-09-29, 02:52:00,VALID,916.989,VALID,0,VALID,100,VALID,0,VALID,19.4628,VALID,106,VALID,1.17852,
2005-09-29, 02:53:00,VALID,917.001,VALID,0,VALID,100,VALID,0,VALID,19.4427,VALID,108,VALID,1.40455,
2005-09-29, 02:54:00,VALID,917.001,VALID,0,VALID,100,VALID,0.0169808,VALID,19.4394,VALID,105,VALID,1.20821,
2005-09-29, 02:55:00,VALID,916.995,VALID,0,VALID,100,VALID,0.0169808,VALID,19.4233,VALID,109,VALID,0.982013,
2005-09-29, 02:56:00,VALID,917.01,VALID,0,VALID,100,VALID,0.0339617,VALID,19.4235,VALID,110,VALID,0.511446,
2005-09-29, 02:57:00,VALID,917.008,VALID,0,VALID,100,VALID,0.0169808,VALID,19.3972,VALID,134,VALID,0.867759,
2005-09-29, 02:58:00,VALID,917.028,VALID,0,VALID,100,VALID,0.0169808,VALID,19.4037,VALID,122,VALID,0.973772,
2005-09-29, 02:59:00,VALID,917.045,VALID,0,VALID,100,VALID,0.0169808,VALID,19.4104,VALID,117,VALID,0.758539,
2005-09-29, 03:00:00,VALID,917.046,VALID,0,VALID,100,VALID,0.0169808,VALID,19.4268,VALID,108,VALID,0.952939,
2005-09-29, 03:01:00,VALID,917.064,VALID,0,VALID,100,VALID,-0.0169808,VALID,19.4298,VALID,105,VALID,0.914993,
2005-09-29, 03:02:00,VALID,917.065,VALID,0,VALID,100,VALID,-0.0679233,VALID,19.4374,VALID,79,VALID,0.848011,
2005-09-29, 03:03:00,VALID,917.085,VALID,0,VALID,100,VALID,-0.0169808,VALID,19.427,VALID,86,VALID,1.08256,
2005-09-29, 03:04:00,VALID,917.073,VALID,0,VALID,100,VALID,-0.0169808,VALID,19.4047,VALID,78,VALID,0.927782,
2005-09-29, 03:05:00,VALID,917.066,VALID,0,VALID,100,VALID,-0.0339617,VALID,19.3759,VALID,75,VALID,0.820871,
2005-09-29, 03:06:00,VALID,917.06,VALID,0,VALID,100,VALID,-0.0679233,VALID,19.3473,VALID,77,VALID,0.557617,
2005-09-29, 03:07:00,VALID,917.046,VALID,0,VALID,100,VALID,-0.0339617,VALID,19.3048,VALID,80,VALID,0.668527,
2005-09-29, 03:08:00,VALID,917.05,VALID,0,VALID,100,VALID,-0.0169808,VALID,19.275,VALID,90,VALID,0.634301,
2005-09-29, 03:09:00,VALID,917.04,VALID,0,VALID,100,VALID,0,VALID,19.2566,VALID,90,VALID,0.70585,
2005-09-29, 03:10:00,VALID,917.041,VALID,0,VALID,100,VALID,0,VALID,19.2435,VALID,87,VALID,0.552148,
2005-09-29, 03:11:00,VALID,917.034,VALID,0,VALID,100,VALID,-0.0169808,VALID,19.2239,VALID,84,VALID,0.338368,
2005-09-29, 03:12:00,VALID,917.015,VALID,0,VALID,100,VALID,0,VALID,19.2047,VALID,84,VALID,0.539474,
2005-09-29, 03:13:00,VALID,917.022,VALID,0,VALID,100,VALID,-0.0169808,VALID,19.1814,VALID,91,VALID,0.390067,
2005-09-29, 03:14:00,VALID,917.012,VALID,0,VALID,100,VALID,-0.0339617,VALID,19.1722,VALID,91,VALID,0.4375,
2005-09-29, 03:15:00,VALID,916.989,VALID,0,VALID,100,VALID,-0.0169808,VALID,19.1695,VALID,93,VALID,0.659157,
2005-09-29, 03:16:00,VALID,916.982,VALID,0,VALID,100,VALID,-0.0169808,VALID,19.1662,VALID,112,VALID,0.856517,
2005-09-29, 03:17:00,VALID,916.974,VALID,0,VALID,100,VALID,-0.0339617,VALID,19.1789,VALID,120,VALID,0.435243,
2005-09-29, 03:18:00,VALID,916.974,VALID,0,VALID,100,VALID,0,VALID,19.1955,VALID,120,VALID,0.686592,
2005-09-29, 03:19:00,VALID,916.981,VALID,0,VALID,100,VALID,-0.0339617,VALID,19.2052,VALID,120,VALID,0.674183,
2005-09-29, 03:20:00,VALID,916.975,VALID,0,VALID,100,VALID,-0.0509425,VALID,19.2181,VALID,122,VALID,0.957031,
2005-09-29, 03:21:00,VALID,916.985,VALID,0,VALID,100,VALID,-0.0339617,VALID,19.2405,VALID,111,VALID,0.90625,
2005-09-29, 03:22:00,VALID,916.998,VALID,0,VALID,100,VALID,-0.0169808,VALID,19.2435,VALID,98,VALID,0.7607,
2005-09-29, 03:23:00,VALID,916.993,VALID,0,VALID,100,VALID,-0.0169808,VALID,19.2564,VALID,118,VALID,0.646802,
2005-09-29, 03:24:00,VALID,916.999,VALID,0,VALID,100,VALID,-0.0509425,VALID,19.2795,VALID,114,VALID,0.875801,
2005-09-29, 03:25:00,VALID,916.998,VALID,0,VALID,100,VALID,-0.0339617,VALID,19.2914,VALID,120,VALID,1.14026,
2005-09-29, 03:26:00,VALID,916.996,VALID,0,VALID,100,VALID,0,VALID,19.3304,VALID,120,VALID,0.873302,
2005-09-29, 03:27:00,VALID,916.979,VALID,0,VALID,100,VALID,0,VALID,19.3572,VALID,98,VALID,1.08285,
2005-09-29, 03:28:00,VALID,916.97,VALID,0,VALID,100,VALID,-0.0169808,VALID,19.3699,VALID,95,VALID,0.923399,
2005-09-29, 03:29:00,VALID,916.954,VALID,0,VALID,100,VALID,-0.0169808,VALID,19.3664,VALID,98,VALID,1.04776,
2005-09-29, 03:30:00,VALID,916.945,VALID,0,VALID,100,VALID,-0.0339617,VALID,19.3634,VALID,92,VALID,1.02077,
2005-09-29, 03:31:00,VALID,916.933,VALID,0,VALID,100,VALID,-0.0339617,VALID,19.3597,VALID,101,VALID,0.929324,
2005-09-29, 03:32:00,VALID,916.903,VALID,0,VALID,100,VALID,-0.0509425,VALID,19.3595,VALID,95,VALID,1.07143,
2005-09-29, 03:33:00,VALID,916.89,VALID,0,VALID,100,VALID,-0.0339617,VALID,19.3694,VALID,95,VALID,1.20803,
2005-09-29, 03:34:00,VALID,916.875,VALID,0,VALID,100,VALID,-0.0169808,VALID,19.3826,VALID,85,VALID,1.55964,
2005-09-29, 03:35:00,VALID,916.87,VALID,0,VALID,100,VALID,-0.0509425,VALID,19.386,VALID,70,VALID,1.14531,
2005-09-29, 03:36:00,VALID,916.852,VALID,0,VALID,100,VALID,-0.0339617,VALID,19.3699,VALID,68,VALID,0.993963,